Location: Kawakawa
(35.3830°S, 174.0670°E)
Time: 17:06:47
(UTC+12:00)

Cosmos 1933 - Pass Details

Date: 15 August 2020
Orbit: 547 x 563 km, 82.5° (Epoch: 25 September)

Event Time Altitude Azimuth Distance (km) Brightness Sun altitude
Rises 19:40:27 0° 353° (N) 2,735 7.0 -22.6°
Reaches altitude 10° 19:42:36 10° 351° (N) 1,846 6.1 -23.0°
Maximum altitude 19:46:41 81° 264° (W) 575 3.3 -23.9°
Enters shadow 19:46:46 80° 239° (WSW) 576 3.3 -23.9°
